Torna al catalogo

THOR ABLESTAR DEB

AttivoLEO
NORAD 148·DEBRIS·🇺🇸 United States

Lanciato Jun 29, 1961 da Cape Canaveral Space Force Station

Loading…

Prossimi Passaggi (prossime 24 ore)

TLE

AggiornatoSource: Space-Track

Epoca: Sep 9, 2026, 17:09 UTC

1 00148U 61015AJ  26252.71460088  .00000318  00000-0  20352-3 0  9994
2 00148  65.7689 251.7136 0152115 278.0581  80.3265 14.10961321770902

Traccia THOR ABLESTAR DEB in tempo reale con AllMySat

Download on the App Store